EUTELSAT 5 WEST B

Last updated on Thu Jul 03 2025 00:02:48 GMT+0000 (Coordinated Universal Time)

1 44624U 19067A 25183.35392052 -.00000035 00000+0 00000+0 0 9998 2 44624 0.0819 320.2597 0003013 138.7838 304.0091 1.00273924 20921
UTC large
Height (km)
Speed (km/s)
/
Latitude / Longitude
Inclination (degrees)
Orbital Period (minutes)
Azimuth
Elevation
Range (km)
Doppler Factor

Next 0 passes for location: London (51.5072 / 0.1276)

Sorry there are no passes over London.